SDM2351 UWLL-UUEE

Flight info

Callsign SDM2351
Flight time 1h 11m
Altitude 36000
Route ARPUD1L ARPUD T750 OKSUD T787 OTKOL T784 LARNO T291 URIDU L158 DIMGI DIMGI3F
Aircraft A320/M-SDE3FGHIRWY/LB1

Departure

Time 2026-04-30 19:10
Airport Ulyanovsk Baratayevka Airport (UWLL)

Arrival

Time 2026-04-30 20:21
Airport Sheremetyevo International Airport (UUEE)
Time Latitude Longitude Altitude Speed Heading
2026-04-30 18:32 54.28572 48.23353 369 ft 0 kts 304°
2026-04-30 18:45 54.28572 48.23352 369 ft 0 kts 304°
2026-04-30 19:00 54.28580 48.23333 372 ft 5 kts 304°
2026-04-30 19:00 54.28559 48.23246 364 ft 0 kts 221°
2026-04-30 19:01 54.28558 48.23245 364 ft 1 kts 221°
2026-04-30 19:02 54.28483 48.23359 370 ft 14 kts 119°
2026-04-30 19:02 54.28349 48.23730 388 ft 11 kts 122°
2026-04-30 19:03 54.28347 48.23736 388 ft 0 kts 122°
2026-04-30 19:05 54.28275 48.23926 392 ft 20 kts 123°
2026-04-30 19:06 54.28046 48.24096 387 ft 24 kts 213°
2026-04-30 19:06 54.27895 48.23933 389 ft 29 kts 212°
2026-04-30 19:06 54.27589 48.23610 401 ft 33 kts 212°
2026-04-30 19:07 54.27186 48.23169 412 ft 34 kts 211°
2026-04-30 19:07 54.26916 48.22883 420 ft 30 kts 213°
2026-04-30 19:08 54.26580 48.22518 434 ft 31 kts 213°
2026-04-30 19:08 54.26377 48.22151 442 ft 21 kts 270°
2026-04-30 19:08 54.26401 48.21917 439 ft 19 kts 324°
2026-04-30 19:09 54.26663 48.22176 420 ft 68 kts 32°
2026-04-30 19:09 54.27309 48.22869 411 ft 148 kts 31°
2026-04-30 19:09 54.28290 48.23916 868 ft 174 kts 34°
2026-04-30 19:10 54.30366 48.26611 2613 ft 195 kts 41°
2026-04-30 19:10 54.32753 48.29209 3655 ft 230 kts
2026-04-30 19:11 54.34384 48.28617 3963 ft 260 kts 330°
2026-04-30 19:11 54.36474 48.23479 4008 ft 274 kts 292°
2026-04-30 19:11 54.37129 48.20413 4007 ft 275 kts 290°
2026-04-30 19:12 54.37802 48.17311 4627 ft 278 kts 292°
2026-04-30 19:12 54.38544 48.14231 5592 ft 280 kts 293°
2026-04-30 19:12 54.39349 48.11186 6548 ft 281 kts 294°
2026-04-30 19:13 54.41101 48.05118 8293 ft 287 kts 295°
2026-04-30 19:13 54.42958 47.98961 9868 ft 295 kts 295°
2026-04-30 19:13 54.43893 47.95873 10089 ft 295 kts 294°
2026-04-30 19:14 54.44843 47.92733 10696 ft 297 kts 294°
2026-04-30 19:14 54.45799 47.89563 11507 ft 300 kts 294°
2026-04-30 19:14 54.46759 47.86370 12289 ft 302 kts 293°
2026-04-30 19:14 54.47719 47.83131 13065 ft 306 kts 293°
2026-04-30 19:15 54.48714 47.79879 13825 ft 309 kts 294°
2026-04-30 19:15 54.50775 47.73306 15142 ft 316 kts 293°
2026-04-30 19:15 54.51807 47.70003 15772 ft 319 kts 292°
2026-04-30 19:16 54.52858 47.66622 16422 ft 322 kts 292°
2026-04-30 19:16 54.53919 47.63201 17045 ft 325 kts 291°
2026-04-30 19:16 54.56068 47.56247 18340 ft 332 kts 291°
2026-04-30 19:17 54.57152 47.52714 18889 ft 335 kts 290°
2026-04-30 19:17 54.59347 47.45553 20013 ft 340 kts 290°
2026-04-30 19:17 54.60442 47.41977 20580 ft 343 kts 290°
2026-04-30 19:18 54.62314 47.35848 21534 ft 346 kts 290°
2026-04-30 19:18 54.63803 47.30957 22268 ft 349 kts 290°
2026-04-30 19:18 54.64934 47.27233 22815 ft 352 kts 290°
2026-04-30 19:19 54.66076 47.23473 23366 ft 354 kts 290°
2026-04-30 19:19 54.67224 47.19694 23876 ft 357 kts 290°
2026-04-30 19:19 54.69541 47.12040 24733 ft 362 kts 290°
2026-04-30 19:20 54.70708 47.08162 25155 ft 366 kts 290°
2026-04-30 19:20 54.71870 47.04297 25557 ft 369 kts 290°
2026-04-30 19:20 54.74257 46.96343 26357 ft 376 kts 290°
2026-04-30 19:21 54.75469 46.92307 26763 ft 380 kts 291°
2026-04-30 19:21 54.77926 46.84109 27557 ft 387 kts 291°
2026-04-30 19:22 54.80422 46.75743 28313 ft 395 kts 291°
2026-04-30 19:22 54.84220 46.62936 29363 ft 405 kts 292°
2026-04-30 19:23 54.88130 46.49688 30320 ft 416 kts 292°
2026-04-30 19:24 54.90765 46.40720 31056 ft 416 kts 293°
2026-04-30 19:24 54.92061 46.36307 31475 ft 414 kts 293°
2026-04-30 19:24 54.94661 46.27416 32339 ft 411 kts 293°
2026-04-30 19:25 54.98502 46.14171 33573 ft 406 kts 294°
2026-04-30 19:26 55.01031 46.05413 34300 ft 403 kts 294°
2026-04-30 19:26 55.03527 45.96741 34807 ft 403 kts 294°
2026-04-30 19:26 55.04782 45.92373 35035 ft 403 kts 294°
2026-04-30 19:27 55.07295 45.83613 35468 ft 404 kts 294°
2026-04-30 19:27 55.09810 45.74827 35909 ft 405 kts 294°
2026-04-30 19:28 55.11066 45.70420 36075 ft 406 kts 294°
2026-04-30 19:29 55.16063 45.52780 36133 ft 406 kts 294°
2026-04-30 19:30 55.21044 45.35049 36130 ft 406 kts 294°
2026-04-30 19:31 55.25990 45.17338 36143 ft 406 kts 294°
2026-04-30 19:31 55.29688 45.03986 36140 ft 405 kts 294°
2026-04-30 19:32 55.32147 44.95085 36137 ft 405 kts 294°
2026-04-30 19:32 55.34577 44.86222 36138 ft 405 kts 294°
2026-04-30 19:33 55.37018 44.77296 36136 ft 405 kts 294°
2026-04-30 19:33 55.39458 44.68362 36132 ft 405 kts 294°
2026-04-30 19:34 55.41887 44.59411 36133 ft 405 kts 294°
2026-04-30 19:35 55.45508 44.46016 36135 ft 406 kts 294°
2026-04-30 19:35 55.47919 44.37030 36138 ft 406 kts 294°
2026-04-30 19:36 55.50331 44.28018 36138 ft 406 kts 294°
2026-04-30 19:36 55.53923 44.14553 36144 ft 406 kts 294°
2026-04-30 19:37 55.56318 44.05504 36146 ft 406 kts 294°
2026-04-30 19:37 55.58707 43.96453 36151 ft 406 kts 294°
2026-04-30 19:38 55.61097 43.87400 36157 ft 406 kts 294°
2026-04-30 19:38 55.63482 43.78326 36164 ft 406 kts 294°
2026-04-30 19:39 55.65832 43.69305 36162 ft 406 kts 294°
2026-04-30 19:39 55.68206 43.60158 36170 ft 414 kts 294°
2026-04-30 19:40 55.70361 43.50582 36174 ft 424 kts 279°
2026-04-30 19:40 55.70765 43.40036 36172 ft 434 kts 272°
2026-04-30 19:41 55.71009 43.29278 36177 ft 445 kts 272°
2026-04-30 19:41 55.71242 43.18199 36178 ft 454 kts 272°
2026-04-30 19:42 55.71481 43.06967 36182 ft 457 kts 272°
2026-04-30 19:42 55.71718 42.95692 36186 ft 457 kts 272°
2026-04-30 19:43 55.71953 42.84500 36185 ft 458 kts 272°
2026-04-30 19:44 55.72277 42.67573 36191 ft 458 kts 272°
2026-04-30 19:44 55.72476 42.56204 36193 ft 464 kts 272°
2026-04-30 19:45 55.72670 42.44757 36194 ft 470 kts 272°
2026-04-30 19:45 55.72849 42.33138 36194 ft 473 kts 271°
2026-04-30 19:46 55.73013 42.21451 36197 ft 474 kts 271°
2026-04-30 19:46 55.73174 42.09745 36198 ft 475 kts 271°
2026-04-30 19:47 55.73332 41.98114 36201 ft 475 kts 271°
2026-04-30 19:47 55.73478 41.86407 36206 ft 475 kts 271°
2026-04-30 19:48 55.73609 41.74680 36210 ft 475 kts 271°
2026-04-30 19:48 55.73730 41.62954 36216 ft 475 kts 271°
2026-04-30 19:49 55.73835 41.51226 36217 ft 475 kts 271°
2026-04-30 19:49 55.73968 41.33700 36225 ft 476 kts 271°
2026-04-30 19:50 55.74009 41.27853 35943 ft 472 kts 271°
2026-04-30 19:50 55.74048 41.22074 35373 ft 466 kts 271°
2026-04-30 19:50 55.74083 41.16345 34842 ft 461 kts 271°
2026-04-30 19:50 55.74114 41.10700 34339 ft 456 kts 271°
2026-04-30 19:51 55.74144 41.05109 33781 ft 451 kts 271°
2026-04-30 19:51 55.74174 40.99568 33224 ft 446 kts 271°
2026-04-30 19:51 55.74197 40.94182 32697 ft 441 kts 271°
2026-04-30 19:51 55.74215 40.88774 32177 ft 436 kts 271°
2026-04-30 19:52 55.74230 40.83418 31669 ft 432 kts 271°
2026-04-30 19:52 55.74244 40.78126 31172 ft 427 kts 271°
2026-04-30 19:52 55.74256 40.72877 30679 ft 423 kts 271°
2026-04-30 19:52 55.74268 40.67669 30203 ft 419 kts 271°
2026-04-30 19:53 55.74277 40.62591 29643 ft 415 kts 271°
2026-04-30 19:53 55.74282 40.57429 29079 ft 411 kts 270°
2026-04-30 19:53 55.74288 40.52465 28551 ft 407 kts 270°
2026-04-30 19:53 55.74292 40.47461 28011 ft 403 kts 270°
2026-04-30 19:54 55.74294 40.42524 27511 ft 399 kts 270°
2026-04-30 19:54 55.74292 40.37611 27009 ft 395 kts 270°
2026-04-30 19:54 55.74287 40.32764 26519 ft 391 kts 270°
2026-04-30 19:54 55.74278 40.27950 26047 ft 388 kts 270°
2026-04-30 19:55 55.74268 40.23183 25581 ft 385 kts 269°
2026-04-30 19:55 55.74259 40.18453 25135 ft 382 kts 269°
2026-04-30 19:55 55.74250 40.13824 24694 ft 378 kts 269°
2026-04-30 19:55 55.74241 40.09175 24261 ft 375 kts 269°
2026-04-30 19:56 55.74230 40.04561 23824 ft 372 kts 269°
2026-04-30 19:56 55.74214 39.99995 23308 ft 369 kts 269°
2026-04-30 19:56 55.74196 39.95453 22809 ft 367 kts 269°
2026-04-30 19:56 55.74177 39.90946 22315 ft 364 kts 269°
2026-04-30 19:57 55.74158 39.86468 21827 ft 362 kts 269°
2026-04-30 19:57 55.74137 39.82015 21349 ft 359 kts 270°
2026-04-30 19:57 55.74114 39.77597 20885 ft 357 kts 270°
2026-04-30 19:57 55.74090 39.73263 20436 ft 355 kts 270°
2026-04-30 19:58 55.74065 39.68910 19984 ft 352 kts 270°
2026-04-30 19:58 55.74266 39.64603 19551 ft 349 kts 285°
2026-04-30 19:58 55.75163 39.60654 19122 ft 345 kts 298°
2026-04-30 19:58 55.76286 39.56901 18687 ft 343 kts 299°
2026-04-30 19:59 55.77410 39.53180 18240 ft 341 kts 299°
2026-04-30 19:59 55.78529 39.49478 17782 ft 339 kts 299°
2026-04-30 19:59 55.80779 39.42002 16542 ft 344 kts 299°
2026-04-30 20:00 55.81883 39.38310 16094 ft 342 kts 298°
2026-04-30 20:00 55.82993 39.34590 15661 ft 339 kts 298°
2026-04-30 20:00 55.84095 39.30890 15231 ft 337 kts 298°
2026-04-30 20:00 55.85190 39.27220 15204 ft 337 kts 298°
2026-04-30 20:01 55.87390 39.19832 15220 ft 338 kts 298°
2026-04-30 20:01 55.88492 39.16128 15220 ft 338 kts 298°
2026-04-30 20:01 55.89591 39.12426 15218 ft 338 kts 298°
2026-04-30 20:02 55.91774 39.05047 15219 ft 346 kts 298°
2026-04-30 20:02 55.92919 39.01169 15219 ft 358 kts 298°
2026-04-30 20:03 55.95144 38.93614 15213 ft 328 kts 298°
2026-04-30 20:03 55.96182 38.90074 15211 ft 318 kts 298°
2026-04-30 20:03 55.97201 38.86594 15213 ft 316 kts 298°
2026-04-30 20:03 55.98215 38.83125 15213 ft 315 kts 298°
2026-04-30 20:04 55.99226 38.79662 15217 ft 315 kts 298°
2026-04-30 20:04 56.00225 38.76237 15209 ft 315 kts 298°
2026-04-30 20:04 56.01238 38.72767 15213 ft 315 kts 298°
2026-04-30 20:05 56.03263 38.65831 15212 ft 315 kts 298°
2026-04-30 20:05 56.04273 38.62356 15123 ft 313 kts 298°
2026-04-30 20:05 56.06259 38.55477 14382 ft 310 kts 298°
2026-04-30 20:06 56.07246 38.52059 13971 ft 309 kts 298°
2026-04-30 20:06 56.08224 38.48662 13265 ft 306 kts 298°
2026-04-30 20:06 56.09180 38.45333 12579 ft 302 kts 298°
2026-04-30 20:06 56.10136 38.42008 11907 ft 299 kts 298°
2026-04-30 20:07 56.11082 38.38711 11246 ft 296 kts 298°
2026-04-30 20:07 56.12021 38.35433 10603 ft 298 kts 298°
2026-04-30 20:07 56.13967 38.28632 9252 ft 312 kts 298°
2026-04-30 20:08 56.14961 38.25153 8583 ft 315 kts 298°
2026-04-30 20:08 56.16017 38.21808 8422 ft 301 kts 302°
2026-04-30 20:08 56.17085 38.18688 8273 ft 283 kts 302°
2026-04-30 20:08 56.18075 38.15806 8147 ft 259 kts 302°
2026-04-30 20:09 56.18978 38.13170 8101 ft 238 kts 302°
2026-04-30 20:09 56.19832 38.10669 8108 ft 238 kts 303°
2026-04-30 20:09 56.21565 38.05597 8111 ft 238 kts 302°
2026-04-30 20:10 56.23293 38.00531 8109 ft 238 kts 302°
2026-04-30 20:10 56.24157 37.97996 8111 ft 238 kts 302°
2026-04-30 20:10 56.25019 37.95462 8110 ft 237 kts 302°
2026-04-30 20:11 56.26133 37.89993 8113 ft 240 kts 275°
2026-04-30 20:11 56.26207 37.86954 7729 ft 246 kts 273°
2026-04-30 20:11 56.26250 37.83868 7283 ft 248 kts 272°
2026-04-30 20:12 56.25947 37.77856 6386 ft 238 kts 243°
2026-04-30 20:12 56.25031 37.75389 5848 ft 238 kts 234°
2026-04-30 20:12 56.24007 37.73033 5240 ft 237 kts 233°
2026-04-30 20:13 56.23000 37.70769 5113 ft 231 kts 232°
2026-04-30 20:13 56.21993 37.68513 5116 ft 232 kts 232°
2026-04-30 20:13 56.20804 37.66643 5113 ft 233 kts 206°
2026-04-30 20:13 56.19222 37.66033 4760 ft 233 kts 179°
2026-04-30 20:14 56.17605 37.66273 4356 ft 233 kts 173°
2026-04-30 20:14 56.16010 37.66642 4110 ft 231 kts 172°
2026-04-30 20:14 56.14434 37.67121 4108 ft 226 kts 168°
2026-04-30 20:14 56.12948 37.67699 4108 ft 213 kts 167°
2026-04-30 20:15 56.11506 37.68280 4115 ft 212 kts 167°
2026-04-30 20:15 56.10069 37.68862 4057 ft 210 kts 167°
2026-04-30 20:15 56.08645 37.69437 3727 ft 210 kts 167°
2026-04-30 20:15 56.07226 37.70013 3416 ft 209 kts 167°
2026-04-30 20:16 56.05839 37.70577 3277 ft 200 kts 167°
2026-04-30 20:16 56.04515 37.71114 3179 ft 196 kts 167°
2026-04-30 20:16 56.03192 37.71642 3106 ft 194 kts 171°
2026-04-30 20:16 56.01886 37.71374 3111 ft 191 kts 211°
2026-04-30 20:17 56.01091 37.69600 3122 ft 187 kts 260°
2026-04-30 20:17 56.00952 37.67290 3128 ft 188 kts 260°
2026-04-30 20:17 56.00641 37.65084 3139 ft 177 kts 256°
2026-04-30 20:17 56.00304 37.63033 2968 ft 169 kts 254°
2026-04-30 20:18 55.99959 37.61078 2701 ft 161 kts 255°
2026-04-30 20:18 55.99703 37.59187 2424 ft 153 kts 258°
2026-04-30 20:18 55.99469 37.57372 2095 ft 150 kts 258°
2026-04-30 20:18 55.99202 37.55615 1785 ft 147 kts 255°
2026-04-30 20:19 55.98944 37.53886 1511 ft 142 kts 258°
2026-04-30 20:19 55.98739 37.52179 1343 ft 138 kts 255°
2026-04-30 20:19 55.98474 37.50538 1273 ft 137 kts 255°
2026-04-30 20:19 55.98231 37.48889 1133 ft 137 kts 255°
2026-04-30 20:20 55.97986 37.47252 990 ft 137 kts 256°
2026-04-30 20:20 55.97752 37.45611 755 ft 136 kts 255°
2026-04-30 20:20 55.97509 37.43987 633 ft 135 kts 254°
2026-04-30 20:20 55.97289 37.42513 633 ft 107 kts 257°
2026-04-30 20:21 55.97152 37.41579 633 ft 54 kts 254°
2026-04-30 20:21 55.97172 37.41344 630 ft 9 kts 342°
2026-04-30 20:21 55.97252 37.41302 634 ft 15 kts 347°
2026-04-30 20:21 55.97364 37.41248 631 ft 19 kts 343°
2026-04-30 20:22 55.97498 37.41183 634 ft 19 kts 347°
2026-04-30 20:22 55.97540 37.41165 630 ft 0 kts 345°